This is the latest recevied weather packets stored in our database for station/object SP4MAZ-13. If no packets are shown the sender has not sent any weather packets the latest 10 day(s).
| Time | Temp. | Humidity | Pressure | Rain* | Wind** | Luminosity | Snow |
|---|---|---|---|---|---|---|---|
| 1777556343 | 10.56° C | 44% | 2147.4 hPa | - | - | - | - |
| 1777556040 | 10.56° C | 41% | 2147.4 hPa | - | - | - | - |
| 1777555739 | 10° C | 38% | 2147.4 hPa | - | - | - | - |
| 1777554222 | 11.67° C | 39% | 2147.4 hPa | - | - | - | - |
| 1777553312 | 11.67° C | 34% | 2147.4 hPa | - | - | - | - |
| 1777548763 | 10.56° C | 37% | 2147.4 hPa | - | - | - | - |
| 1777548460 | 10° C | 39% | 2147.4 hPa | - | - | - | - |
| 1777548156 | 10° C | 34% | 2147.4 hPa | - | - | - | - |
| 1777547852 | 10° C | 34% | 2147.4 hPa | - | - | - | - |
| 1777547549 | 11.11° C | 30% | 2147.4 hPa | - | - | - | - |
| 1777546032 | 11.67° C | 29% | 2147.4 hPa | - | - | - | - |
| 1777545729 | 10.56° C | 38% | 2147.4 hPa | - | - | - | - |
| 1777545426 | 10° C | 40% | 2147.4 hPa | - | - | - | - |
| 1777545122 | 8.89° C | 41% | 2147.4 hPa | - | - | - | - |
| 1777544819 | 9.44° C | 36% | 2147.4 hPa | - | - | - | - |
| 1777544515 | 10° C | 35% | 2147.4 hPa | - | - | - | - |
| 1777544212 | 9.44° C | 37% | 2147.4 hPa | - | - | - | - |
| 1777543909 | 9.44° C | 41% | 2147.4 hPa | - | - | - | - |
| 1777543605 | 10° C | 38% | 2147.4 hPa | - | - | - | - |
| 1777542998 | 10.56° C | 33% | 2147.4 hPa | - | - | - | - |
| 1777542391 | 11.11° C | 39% | 2147.4 hPa | - | - | - | - |
| 1777542088 | 8.89° C | 39% | 2147.4 hPa | - | - | - | - |
| 1777541784 | 11.67° C | 41% | 2147.4 hPa | - | - | - | - |
| 1777541481 | 12.22° C | 35% | 2147.4 hPa | - | - | - | - |
| 1777541177 | 12.22° C | 37% | 2147.4 hPa | - | - | - | - |
* Rain since midnight (hover to see other rain measurements)
** Current wind speed in m/s (hover to see current wind gust speed)